Pearl River, LA

4:57 AM CST on January 19, 2017 (GMT -0600)
Slidell

Weather History for KASD - March, 2013

Change the Weather History Date:

Sunday, March 10, 2013

  Actual Average (KNEW) Record (KNEW)
Temperature  
Mean Temperature 70 °F -  
Max Temperature 77 °F 68 °F 82 °F (2000)
Min Temperature 64 °F 54 °F 34 °F (1996)
Cooling Degree Days 6    
Growing Degree Days 20 (Base 50)    
Moisture  
Dew Point 63 °F    
Average Humidity 82    
Maximum Humidity 94    
Minimum Humidity 58    
Precipitation  
Precipitation 0.00 in - - ()
Sea Level Pressure  
Sea Level Pressure 29.93 in    
Wind  
Wind Speed 11 mph (SSE)    
Max Wind Speed 23 mph    
Max Gust Speed 34 mph    
Visibility 10 miles    
Events      
Averages and records for this station are not official NWS values.
T = Trace of Precipitation, MM = Missing Value Source: NWS Daily Summary

Daily Weather History Graph

Daily Weather History Graph

Search for Another Location

Airport or City:

Trip Planner

Search our weather history database for the weather conditions in past years. The results will help you decide how hot, cold, wet, or windy it might be!

Date:

Astronomy

Mar. 10, 2013 Rise Set
Actual Time 7:14 AM CDT 7:04 PM CDT
Civil Twilight 6:50 AM CDT 7:28 PM CDT
Nautical Twilight 6:23 AM CDT 7:56 PM CDT
Astronomical Twilight 5:55 AM CDT 8:24 PM CDT
Moon 6:12 AM CDT (3/10) 6:12 PM CDT (3/10)
Length of Visible Light 12h 37m
Length of Day
11h 49m
Waning Crescent, 2% of the Moon is Illuminated
Mar 10
Waning Crescent
Mar 11
New
Mar 19
First Quarter
Mar 27
Full
Apr 2
Last Quarter

Hourly Weather History & Observations

Time (CDT) Temp. Dew Point Humidity Pressure Visibility Wind Dir Wind Speed Gust Speed Precip Events Conditions
12:53 AM 64.0 °F 62.1 °F 93% 29.98 in 9.0 mi ESE 8.1 mph 16.1 mph N/A   Mostly Cloudy
1:53 AM 64.0 °F 62.1 °F 93% 29.96 in 9.0 mi SE 10.4 mph - N/A   Overcast
3:53 AM 64.0 °F 62.1 °F 93% 29.93 in 8.0 mi ESE 9.2 mph - N/A   Mostly Cloudy
4:02 AM 64.4 °F 62.6 °F 94% 29.92 in 8.0 mi SE 10.4 mph - N/A   Mostly Cloudy
4:13 AM 64.4 °F 62.6 °F 94% 29.92 in 8.0 mi Variable 6.9 mph - N/A   Mostly Cloudy
4:24 AM 64.4 °F 62.6 °F 94% 29.93 in 8.0 mi SE 9.2 mph 16.1 mph N/A   Overcast
4:49 AM 64.4 °F 62.6 °F 94% 29.93 in 8.0 mi ESE 6.9 mph - N/A   Scattered Clouds
4:53 AM 64.0 °F 62.1 °F 93% 29.94 in 8.0 mi ESE 6.9 mph - N/A   Partly Cloudy
5:53 AM 64.0 °F 62.1 °F 93% 29.94 in 9.0 mi ESE 8.1 mph - N/A   Clear
7:09 AM 64.4 °F 60.8 °F 88% 29.94 in 10.0 mi SE 5.8 mph 16.1 mph N/A   Mostly Cloudy
7:18 AM 64.4 °F 60.8 °F 88% 29.95 in 10.0 mi ESE 9.2 mph 16.1 mph N/A   Mostly Cloudy
7:53 AM 66.9 °F 61.0 °F 81% 29.95 in 10.0 mi SE 9.2 mph 19.6 mph N/A   Clear
8:53 AM 69.1 °F 62.1 °F 78% 29.94 in 10.0 mi SE 16.1 mph 27.6 mph N/A   Clear
9:53 AM 72.0 °F 62.1 °F 71% 29.98 in 10.0 mi SSE 16.1 mph 24.2 mph N/A   Partly Cloudy
10:53 AM 73.9 °F 61.0 °F 64% 30.00 in 10.0 mi South 17.3 mph 29.9 mph N/A   Overcast
11:53 AM 75.0 °F 60.1 °F 60% 30.00 in 10.0 mi South 18.4 mph 28.8 mph N/A   Overcast
12:53 PM 75.0 °F 60.1 °F 60% 29.99 in 10.0 mi South 23.0 mph 31.1 mph N/A   Mostly Cloudy
1:53 PM 77.0 °F 61.0 °F 58% 29.95 in 10.0 mi SSE 21.9 mph 34.5 mph N/A   Mostly Cloudy
2:53 PM 73.9 °F 62.1 °F 66% 29.94 in 10.0 mi SSE 15.0 mph 31.1 mph N/A   Overcast
3:53 PM 75.0 °F 63.0 °F 66% 29.92 in 10.0 mi SSE 19.6 mph 32.2 mph 0.00 in   Overcast
4:53 PM 75.0 °F 63.0 °F 66% 29.90 in 10.0 mi SSE 15.0 mph 25.3 mph N/A   Overcast
5:48 PM 73.4 °F 64.4 °F 73% 29.89 in 10.0 mi SSE 12.7 mph - N/A   Overcast
5:53 PM 72.0 °F 64.9 °F 78% 29.90 in 10.0 mi SSE 12.7 mph - N/A   Overcast
6:53 PM 71.1 °F 64.9 °F 81% 29.90 in 10.0 mi SSE 10.4 mph - N/A   Overcast
7:14 PM 69.8 °F 64.4 °F 83% 29.90 in 10.0 mi SSE 12.7 mph 19.6 mph 0.00 in   Overcast
7:53 PM 69.1 °F 64.9 °F 87% 29.90 in 10.0 mi SSE 12.7 mph - 0.00 in   Overcast
8:36 PM 69.8 °F 66.2 °F 88% 29.90 in 10.0 mi SSE 9.2 mph - N/A   Overcast
9:10 PM 69.8 °F 66.2 °F 88% 29.91 in 10.0 mi SSE 6.9 mph - N/A   Overcast
9:53 PM 69.1 °F 66.0 °F 90% 29.91 in 10.0 mi SSE 9.2 mph 19.6 mph N/A   Overcast
10:53 PM 69.1 °F 66.0 °F 90% 29.90 in 10.0 mi SSE 10.4 mph - N/A   Overcast
11:53 PM 69.1 °F 66.0 °F 90% 29.91 in 10.0 mi South 11.5 mph - N/A   Overcast
12:53 AM 68.0 °F 66.0 °F 93% 29.90 in 10.0 mi South 10.4 mph - N/A   Clear